Home   Weather   Portsmouth   Past weeks

Flag for USA Past Weather in Portsmouth, Virginia, USA — Yesterday and Last 2 Weeks

Now
42 °F

Mostly cloudy.


Feels Like: 33 °F
Forecast: 41 / 51 °F
Wind: 21 mph from Northwest

Location: Norfolk Naval Air Station

Current Time: Jan 24, 2017 at 10:45:41 am

Latest Report: Jan 24, 2017 at 9:59 am


Visibility: 10 mi

Pressure: 29.54 "Hg

Humidity: 79%

Dew Point: 36 °F

Location of PortsmouthLocation

Past Weather in Portsmouth — Graph

°F

Portsmouth Temperature Yesterday

Maximum temperature yesterday: 65 °F (at 11:59 am)
Minimum temperature yesterday: 46 °F (at 10:59 pm)
Average temperature yesterday: 52 °F

High & Low Weather Summary for the Past Weeks

 TemperatureHumidityPressure
High71 °F (Jan 12, 12:59 pm)100% (Jan 23, 3:59 am)30.84 "Hg (Jan 23, 3:59 am)
Low17 °F (Jan 9, 10:59 pm)22% (Jan 10, 2:59 pm)29.23 "Hg (Jan 23, 12:59 pm)
Average47 °F82%30.08 "Hg
* Reported Jan 9 9:59 am — Jan 24 9:02 am, Portsmouth, Weather by CustomWeather, © 2017

Note: Actual official high and low records may vary slightly from our data, if they occured in-between our weather recording intervals... More about our weather records

Advertising

Portsmouth Weather History for the Previous 24 Hours

Scroll right to see more
 ConditionsComfort  
Time TempWeatherWind HumidityBarometerVisibility
9:02 am
Tue, Jan 24
41 °FMostly cloudy.16 mph82%29.51 "Hg10 mi
8:59 am41 °FMostly cloudy.18 mph82%29.51 "Hg10 mi
7:59 am40 °FMostly cloudy.18 mph86%29.49 "Hg10 mi
6:59 am40 °FMostly cloudy.18 mph89%29.46 "Hg10 mi
6:29 am40 °FMostly cloudy.20 mph89%29.46 "Hg10 mi
5:59 am41 °FLight rain. Fog.16 mph89%29.45 "Hg5 mi
4:59 am41 °FOvercast.18 mph89%29.43 "Hg10 mi
3:59 am41 °FLight rain. Fog.15 mph93%29.41 "Hg5 mi
2:59 am42 °FLight rain. Overcast.18 mph85%29.40 "Hg10 mi
1:59 am42 °FOvercast.16 mph89%29.37 "Hg10 mi
12:59 am44 °FLight rain. Overcast.23 mph85%29.35 "Hg7 mi
11:59 pm
Mon, Jan 23
46 °FLight rain. Overcast.17 mph89%29.34 "Hg10 mi
11:28 pm46 °FLight rain. Overcast.20 mph89%29.35 "Hg10 mi
10:59 pm46 °FLight rain. Low clouds.16 mph93%29.34 "Hg10 mi
10:15 pm47 °FLight rain. Fog.17 mph93%29.33 "Hg4 mi
9:59 pm47 °FLight rain. Fog.17 mph93%29.33 "Hg5 mi
8:59 pm47 °FLight rain. Fog.12 mph93%29.31 "Hg4 mi
7:59 pm48 °FLight rain. Fog.15 mph93%29.29 "Hg4 mi
6:59 pm50 °FLight rain. Fog.17 mph93%29.28 "Hg1 mi
5:59 pm50 °FFog.13 mph96%29.27 "Hg1 mi
5:16 pm52 °FFog.13 mph93%29.27 "Hg1 mi
4:59 pm52 °FFog.8 mph93%29.26 "Hg1 mi
3:59 pm54 °FFog.10 mph90%29.26 "Hg1 mi
2:59 pm57 °FPartly sunny.No wind90%29.24 "Hg7 mi
2:27 pm56 °FFog.5 mph90%29.25 "Hg6 mi
2:10 pm57 °FFog.5 mph87%29.24 "Hg5 mi
1:59 pm58 °FPartly sunny.6 mph84%29.24 "Hg7 mi
12:59 pm60 °FPartly sunny.6 mph83%29.23 "Hg10 mi
12:42 pm57 °FPartly sunny.8 mph87%29.23 "Hg10 mi
11:59 am65 °FPartly sunny.8 mph81%29.24 "Hg10 mi
10:59 am62 °FPartly sunny.7 mph90%29.26 "Hg10 mi
10:18 am55 °FFog.5 mph96%29.28 "Hg2 mi
Weather by CustomWeather, © 2017

See weather overviewHow to use our weather pages